User: anonymous   Login
Location: Unspecified
(0.0000°N, 0.0000°E)
Time: 20:18:20
(UTC+00:00)
Language:

GONETS M03 - Orbit

View from above orbital plane
View from above orbital plane
View from above satellite
View from above satellite

Ground track
Ground track

The orbit data is extracted from the following two-line orbital elements,

1 38734U 12041B   18017.16208249  .00000042  00000-0  22591-3 0  9990
2 38734  82.4732 189.3210 0015425 307.1136  52.8534 12.44795319248382
Epoch (UTC): 17 January 2018 03:53:23
Eccentricity: 0.0015425
inclination: 82.4732°
perigee height: 1474 km
apogee height: 1498 km
right ascension of ascending node: 189.3210°
argument of perigee: 307.1136°
revolutions per day: 12.44795319
mean anomaly at epoch: 52.8534°
orbit number at epoch: 24838

The dashed part of the orbit path shows where the satellite is in the earth's shadow,  

DLR